Location: Akgöl Batakl???
(38.9482°N, 31.8837°E)
Time: 12:04:23
(UTC+00:00)

MSX - Pass Details

Date: 08 May 2026
Orbit: 894 x 904 km, 99.0° (Epoch: 6 June)

Event Time Altitude Azimuth Distance (km) Brightness Sun altitude
Rises 23:28:42 0° 14° (NNE) 3,533 8.1 -29.1°
Reaches altitude 10° 23:31:07 10° 15° (NNE) 2,589 7.1 -28.9°
Maximum altitude 23:36:55 84° 105° (ESE) 914 3.7 -28.3°
Enters shadow 23:37:05 82° 140° (SE) 917 3.7 -28.3°
